Weather History for Perryton, TX

Change the Weather History Date:

Sunday, May 5, 2013

  Actual Average Record
Temperature  
Mean Temperature 50 °F -  
Max Temperature 70 °F 73 °F 98 °F (2012)
Min Temperature 31 °F 46 °F 31 °F (2013)
Degree Days  
Heating Degree Days 15    
Moisture  
Dew Point 26 °F    
Average Humidity 46    
Maximum Humidity 79    
Minimum Humidity 15    
Precipitation  
Precipitation 0.00 in - - ()
Sea Level Pressure  
Sea Level Pressure 30.16 in    
Wind  
Wind Speed 8 mph (North)    
Max Wind Speed 16 mph    
Max Gust Speed 23 mph    
Visibility 10 miles    
Events      
Averages and records for this station are not official NWS values.
T = Trace of Precipitation, MM = Missing Value Source: NWS Daily Summary

Daily Weather History Graph

Daily Weather History Graph

Search for Another Location

Airport:

Trip Planner

Search our weather history database for the weather conditions in past years. The results will help you decide how hot, cold, wet, or windy it might be!

Date:

Astronomy

May. 05, 2013 Rise Set
Actual Time 6:45 AM CDT 8:34 PM CDT
Civil Twilight 6:17 AM CDT 9:02 PM CDT
Nautical Twilight 5:43 AM CDT 9:36 PM CDT
Astronomical Twilight 5:07 AM CDT 10:12 PM CDT
Moon 4:09 AM CDT (5/5) 4:42 PM CDT (5/5)
Length of Visible Light 14h 45m
Length of Day
13h 49m
Waning Crescent, 18% of the Moon is Illuminated
May 5
Waning Crescent
May 9
New
May 17
First Quarter
May 24
Full
May 31
Last Quarter

Hourly Weather History & Observations

Time (CDT) Temp. Windchill Dew Point Humidity Pressure Visibility Wind Dir Wind Speed Gust Speed Precip Events Conditions
12:15 AM 40.6 °F 36.7 °F 27.5 °F 59% 30.15 in 10.0 mi NNE 5.8 mph - N/A   Clear
12:35 AM 38.3 °F 32.5 °F 27.0 °F 64% 30.15 in 10.0 mi NNE 8.1 mph - N/A   Clear
12:55 AM 42.4 °F 37.0 °F 29.1 °F 59% 30.16 in 10.0 mi NNE 9.2 mph - N/A   Clear
1:15 AM 37.0 °F 31.0 °F 25.7 °F 64% 30.16 in 10.0 mi NNE 8.1 mph - N/A   Clear
1:35 AM 38.1 °F 32.3 °F 28.2 °F 68% 30.16 in 10.0 mi NNE 8.1 mph - N/A   Clear
1:55 AM 37.2 °F 32.6 °F 27.1 °F 67% 30.16 in 10.0 mi North 5.8 mph - N/A   Clear
2:15 AM 34.0 °F 26.0 °F 24.4 °F 68% 30.16 in 10.0 mi North 10.4 mph - N/A   Clear
2:35 AM 34.0 °F 26.0 °F 25.3 °F 71% 30.15 in 10.0 mi North 10.4 mph - N/A   Clear
2:55 AM 33.6 °F 26.8 °F 25.7 °F 73% 30.15 in 10.0 mi NNW 8.1 mph - N/A   Clear
3:15 AM 33.4 °F 25.4 °F 26.2 °F 75% 30.15 in 10.0 mi North 10.4 mph - N/A   Clear
3:35 AM 33.8 °F 25.8 °F 27.1 °F 77% 30.14 in 10.0 mi North 10.4 mph - N/A   Clear
3:55 AM 35.8 °F 28.3 °F 27.7 °F 72% 30.15 in 10.0 mi North 10.4 mph - N/A   Clear
4:15 AM 35.8 °F 29.4 °F 27.5 °F 72% 30.16 in 10.0 mi NNW 8.1 mph - N/A   Clear
4:35 AM 34.0 °F 28.0 °F 26.8 °F 75% 30.17 in 10.0 mi NW 6.9 mph - N/A   Clear
4:55 AM 33.3 °F 26.4 °F 27.1 °F 78% 30.17 in 10.0 mi NW 8.1 mph - N/A   Clear
5:15 AM 32.0 °F 24.8 °F 25.9 °F 78% 30.18 in 10.0 mi NW 8.1 mph - N/A   Clear
5:35 AM 32.5 °F 25.5 °F 26.1 °F 77% 30.18 in 10.0 mi NW 8.1 mph - N/A   Clear
5:55 AM 32.0 °F 25.6 °F 25.7 °F 78% 30.18 in 10.0 mi NW 6.9 mph - N/A   Clear
6:15 AM 32.0 °F 25.6 °F 25.7 °F 78% 30.18 in 10.0 mi NNW 6.9 mph - N/A   Clear
6:35 AM 31.1 °F 24.5 °F 25.0 °F 78% 30.18 in 10.0 mi NNW 6.9 mph - N/A   Clear
6:55 AM 31.3 °F 24.7 °F 25.5 °F 79% 30.19 in 10.0 mi NW 6.9 mph - N/A   Clear
7:15 AM 33.3 °F 26.4 °F 26.8 °F 77% 30.19 in 10.0 mi NNW 8.1 mph - N/A   Clear
7:35 AM 36.0 °F 29.6 °F 27.5 °F 71% 30.20 in 10.0 mi NNW 8.1 mph - N/A   Clear
7:55 AM 38.8 °F 32.6 °F 28.0 °F 65% 30.21 in 10.0 mi NNW 9.2 mph - N/A   Clear
8:15 AM 41.4 °F 34.0 °F 28.2 °F 60% 30.22 in 10.0 mi North 13.8 mph - N/A   Clear
8:35 AM 43.2 °F 35.6 °F 28.6 °F 56% 30.22 in 10.0 mi North 16.1 mph - N/A   Clear
8:55 AM 43.7 °F 36.6 °F 29.1 °F 57% 30.22 in 10.0 mi North 15.0 mph - N/A   Clear
9:15 AM 45.7 °F 39.1 °F 30.0 °F 54% 30.23 in 10.0 mi North 15.0 mph - N/A   Clear
9:35 AM 47.3 °F - 30.6 °F 52% 30.23 in 10.0 mi North 16.1 mph 23.0 mph N/A   Clear
9:55 AM 49.3 °F - 32.0 °F 51% 30.22 in 10.0 mi North 15.0 mph 21.9 mph N/A   Clear
10:15 AM 50.2 °F - 32.0 °F 50% 30.23 in 10.0 mi North 12.7 mph 21.9 mph N/A   Clear
10:35 AM 51.8 °F - 32.0 °F 47% 30.22 in 10.0 mi North 12.7 mph 18.4 mph N/A   Clear
10:55 AM 52.9 °F - 32.7 °F 46% 30.23 in 10.0 mi NNW 11.5 mph 18.4 mph N/A   Clear
11:15 AM 54.5 °F - 32.5 °F 43% 30.23 in 10.0 mi NNW 10.4 mph - N/A   Clear
11:35 AM 56.3 °F - 32.4 °F 40% 30.23 in 10.0 mi North 12.7 mph 20.7 mph N/A   Clear
11:55 AM 56.1 °F - 32.5 °F 41% 30.23 in 10.0 mi NNW 10.4 mph 18.4 mph N/A   Clear
12:15 PM 58.5 °F - 32.2 °F 37% 30.22 in 10.0 mi North 10.4 mph - N/A   Clear
12:35 PM 59.9 °F - 31.8 °F 35% 30.21 in 10.0 mi North 10.4 mph 16.1 mph N/A   Clear
1:15 PM 63.0 °F - 29.7 °F 29% 30.19 in 10.0 mi North 9.2 mph 17.3 mph N/A   Clear
1:35 PM 64.0 °F - 28.9 °F 27% 30.18 in 10.0 mi NNW 11.5 mph 18.4 mph N/A   Clear
1:55 PM 64.2 °F - 27.5 °F 25% 30.17 in 10.0 mi NNE 8.1 mph 17.3 mph N/A   Clear
2:15 PM 65.7 °F - 26.1 °F 22% 30.16 in 10.0 mi NNE 10.4 mph - N/A   Clear
2:35 PM 65.8 °F - 23.2 °F 20% 30.16 in 10.0 mi NNW 9.2 mph - N/A   Clear
2:55 PM 66.6 °F - 22.6 °F 19% 30.15 in 10.0 mi NW 5.8 mph 18.4 mph N/A   Clear
3:15 PM 66.4 °F - 21.9 °F 18% 30.14 in 10.0 mi NNE 10.4 mph 17.3 mph N/A   Clear
3:35 PM 67.1 °F - 19.8 °F 16% 30.14 in 10.0 mi North 8.1 mph - N/A   Clear
3:55 PM 69.1 °F - 20.8 °F 16% 30.12 in 10.0 mi NNE 4.6 mph - N/A   Clear
4:15 PM 68.9 °F - 19.6 °F 15% 30.12 in 10.0 mi North 6.9 mph - N/A   Clear
4:35 PM 68.4 °F - 19.6 °F 16% 30.12 in 10.0 mi NNE 5.8 mph - N/A   Clear
4:55 PM 69.6 °F - 20.7 °F 16% 30.11 in 10.0 mi NW 6.9 mph - N/A   Clear
5:15 PM 67.8 °F - 19.2 °F 16% 30.10 in 10.0 mi ENE 6.9 mph - N/A   Clear
5:35 PM 67.8 °F - 18.0 °F 15% 30.10 in 10.0 mi NNW 10.4 mph - N/A   Clear
5:55 PM 67.8 °F - 18.5 °F 15% 30.10 in 10.0 mi NNW 8.1 mph - N/A   Clear
6:15 PM 68.4 °F - 18.0 °F 15% 30.10 in 10.0 mi North 6.9 mph - N/A   Clear
6:35 PM 67.8 °F - 18.0 °F 15% 30.10 in 10.0 mi Calm Calm - N/A   Clear
7:15 PM 65.3 °F - 21.9 °F 19% 30.10 in 10.0 mi NNE 4.6 mph - N/A   Clear
7:35 PM 64.6 °F - 20.8 °F 19% 30.09 in 10.0 mi NNE 4.6 mph - N/A   Clear
7:55 PM 63.0 °F - 24.1 °F 23% 30.10 in 10.0 mi NE 4.6 mph - N/A   Clear
8:15 PM 62.2 °F - 23.2 °F 22% 30.10 in 10.0 mi NE 5.8 mph - N/A   Clear
8:35 PM 60.8 °F - 24.4 °F 25% 30.10 in 10.0 mi NNE 4.6 mph - N/A   Clear
8:55 PM 59.2 °F - 26.1 °F 28% 30.11 in 10.0 mi NE 4.6 mph - N/A   Clear
9:35 PM 57.6 °F - 28.9 °F 34% 30.11 in 10.0 mi East 6.9 mph - N/A   Clear
9:55 PM 54.9 °F - 29.3 °F 38% 30.11 in 10.0 mi ENE 5.8 mph - N/A   Clear
10:15 PM 54.7 °F - 29.1 °F 38% 30.12 in 10.0 mi East 6.9 mph - N/A   Clear
10:35 PM 52.9 °F - 29.5 °F 41% 30.12 in 10.0 mi East 6.9 mph - N/A   Clear
10:55 PM 52.0 °F - 30.2 °F 43% 30.12 in 10.0 mi East 8.1 mph - N/A   Clear
11:15 PM 52.0 °F - 30.4 °F 44% 30.12 in 10.0 mi East 6.9 mph - N/A   Clear
11:35 PM 50.5 °F - 30.6 °F 46% 30.12 in 10.0 mi ESE 5.8 mph - N/A   Clear
11:55 PM 47.3 °F - 28.6 °F 48% 30.12 in 10.0 mi ESE 5.8 mph - N/A   Clear